This is the latest recevied weather packets stored in our database for station/object JS2WAD-13. If no packets are shown the sender has not sent any weather packets the latest 10 day(s).
| Time | Temp. | Humidity | Pressure | Rain* | Wind** | Luminosity | Snow |
|---|---|---|---|---|---|---|---|
| 1777785990 | 21.67° C | 72% | 899.9 hPa | 0 mm | - | 49 W/m² | - |
| 1777785690 | 21.67° C | 72% | 899.9 hPa | 0 mm | - | 67 W/m² | - |
| 1777785390 | 21.67° C | 72% | 899.9 hPa | 0 mm | - | 51 W/m² | - |
| 1777785090 | 21.67° C | 72% | 899.9 hPa | 0 mm | - | 49 W/m² | - |
| 1777784790 | 21.67° C | 72% | 900.1 hPa | 0 mm | - | 46 W/m² | - |
| 1777784490 | 21.67° C | 72% | 900 hPa | 0 mm | - | 49 W/m² | - |
| 1777784190 | 21.67° C | 72% | 900.2 hPa | 0 mm | - | 62 W/m² | - |
| 1777783890 | 21.67° C | 72% | 900.2 hPa | 0 mm | - | 54 W/m² | - |
| 1777783590 | 21.67° C | 72% | 900.3 hPa | 0 mm | - | 53 W/m² | - |
| 1777783290 | 21.67° C | 69% | 900.6 hPa | 0 mm | - | 42 W/m² | - |
| 1777782990 | 21.67° C | 69% | 900.8 hPa | 0 mm | - | 39 W/m² | - |
| 1777782690 | 21.67° C | 68% | 900.9 hPa | 0 mm | - | 32 W/m² | - |
| 1777782390 | 21.67° C | 68% | 900.9 hPa | 0 mm | - | 47 W/m² | - |
| 1777782090 | 21.67° C | 68% | 901.1 hPa | 0 mm | - | 40 W/m² | - |
| 1777781790 | 21.67° C | 68% | 901.2 hPa | 0 mm | - | 46 W/m² | - |
| 1777781490 | 22.22° C | 67% | 901.2 hPa | 0 mm | - | 53 W/m² | - |
| 1777781190 | 22.22° C | 66% | 901.1 hPa | 0 mm | - | 33 W/m² | - |
| 1777780890 | 22.22° C | 66% | 901.3 hPa | 0 mm | - | 47 W/m² | - |
| 1777780590 | 22.22° C | 65% | 901.2 hPa | 0 mm | - | 28 W/m² | - |
| 1777780290 | 22.22° C | 65% | 901.2 hPa | 0 mm | - | 54 W/m² | - |
| 1777779990 | 22.78° C | 64% | 901.1 hPa | 0 mm | - | 69 W/m² | - |
| 1777779690 | 22.78° C | 63% | 901.2 hPa | 0 mm | - | 81 W/m² | - |
| 1777779390 | 22.78° C | 62% | 901.2 hPa | 0 mm | - | 79 W/m² | - |
| 1777779090 | 23.33° C | 62% | 901.2 hPa | 0 mm | - | 81 W/m² | - |
| 1777778791 | 23.33° C | 61% | 901.4 hPa | 0 mm | - | 107 W/m² | - |
* Rain latest hour (hover to see other rain measurements)
** Current wind speed in m/s (hover to see current wind gust speed)